Погода в Покойном

Россия / Ставропольский край     44°48′35″N   44°14′45″E
темп.,
°C
ветер,
м/с
пор.,
м/с
влажн.,
%
обл.,
%
осадки,
мм/ч
давл.,
гПа
погр.,
м
28 сентября, вт
вт2800:00+11зюз00665 0.0 101810
03:00+10зсз11675 0.0 101710
06:00+10сз116880 0.0 101811
09:00+13с125684 0.0 1018213
12:00+17ссз2340100 0.0 10181650
15:00+15юз435290 0.1 1019606
18:00+13юз3470100 0.1 1021182
21:00+12юз347864 0.1 1022160
29 сентября, ср
ср2900:00+11зюз118160 0.0 102255
03:00+11ссв118353 0.0 102221
06:00+11всв3676100 0.0 1023183
09:00+12всв5766100 0.0 1024486
12:00+13всв5661100 0.0 1024745
15:00+12св5658100 0.0 1024701
18:00+12всв4757100 0.0 1024465
21:00+11св5853100 0.0 1026532
30 сентября, чт
чт3000:00+10св5852100 0.0 1026593
03:00+10всв5753100 0.1 1026450
06:00+9всв4853100 0.0 1027463
09:00+10всв5746100 0.0 1029623
12:00+13всв554082 0.0 10281270
15:00+14в453696 0.0 10271531
18:00+12всв364270 0.0 1027195
21:00+10всв5104428 0.0 1028355
1 октября, пт
пт100:00+8в386630 0.0 1028167
03:00+8всв5116387 0.0 1028399
06:00+8всв6136385 0.0 1028524
09:00+12в8115256 0.0 10281005
12:00+13в71051100 0.0 10281226
15:00+13вюв71053100 0.0 10281307
18:00+12вюв61157100 0.0 1028820
21:00+10в61174100 1.1 1030870
2 октября, сб
сб200:00+9в61183100 2.0 1030653
03:00+8всв61289100 3.4 1029643
06:00+9всв71389100 0.5 1029604
09:00+10всв71280100 0.6 1029596
12:00+12в71165100 0.0 1028881
15:00+13в71162100 0.0 1028930
18:00+12в71262100 0.0 1028682
21:00+12в71363100 0.0 1028565